STARLINK-1551, 46075

Orbit data source: Space-Track

STARLINK-1551, 46075 is a payload satellite owned by SpaceX/Seattle (US) in LEO that was launched on Fri, 07 Aug 2020 UTC via an FALCON 9 launch vehicle from the Air Force Eastern Test Range (AFETR). Payload-class satellites include a variety of spacecraft equipped with specific instruments for various scientific and technological missions. These include communications satellites like Starlink; space stations such as the ISS; scientific satellites like the Hubble; Earth observation satellites from companies like Planet Labs, Umbra, and HawkEye 360; GPS; miniature CubeSats for education and research; and military/defense satellites.

Loading next visibility...
Identifier
46075, 2020-055BA
Orbit
LEO
Country
Flag of USUS
Related business
Manufacturer
SpaceX/Seattle
Mission
Operational Commercial Communications
Bus & Motor
STARLINK, Unknown motor
Mass
260 kg wet, ~248 kg dry
Launch date (UTC)
2020-08-07 (5 years ago)
Launch vehicle
FALCON 9
Launch site
Air Force Eastern Test Range (AFETR)
Object type
Payload
Rocket body
Debris
Shape & HBR
Box + 1 Pan, 10.1 m
Radar Cross Section
13.562 m², Large (>1 m²)

Expand to show TLE details & history
Last TLE update: 15 hours ago

TLE from 15 hours ago
0 STARLINK-1551
1 46075U 20055BA  25294.88972544  .00007080  00000-0  49363-3 0  9996
2 46075  53.0555 359.7125 0001709  86.9929 273.1255 15.06409126288387
Epoch: 2025-10-21T21:21Z
TLE epoch observation values (Epoch: 2025-10-21T21:21:12.278Z)
Latitude
-0.00004°
Longitude
8.84011°
Altitude
547.999 km
Speed
7.589 km/s
True Right ascension
23h 58m 50s
True Declination
0° 00' 00"
Sunlit
Object was in full shadow at epoch
Visualization orbit readout
Latitude
Unknown
Longitude
Unknown
Altitude
Unknown
Speed
Unknown
Apparent Right ascension
Unknown
Apparent Declination
Unknown
Sunlit
N/A
Visualization observer readout
Local Sidereal Time
07:07:08
Azimuth
Unknown
Elevation
Unknown
Doppler factor
Unknown
Orbital elements
Apogee altitude
548.638 km
Perigee altitude
546.271 km
Semi-major axis
6,925.591 km
Eccentricity
0.00017
Inclination
53.0555°
RAAN
359.7125°
Arg. of periapsis
86.9929°
True anomaly
273.10595°
Mean anomaly
273.1255°
Eccentric anomaly
273.11572°
Mean motion
3.76581 °/min
Orbital period
95.6 mins
BSTAR
0.00049363
Loading maneuver chart data...
Computing Atmospheric mass density...
Loading historical data...
Loading historical data...
Loading historical data...
Loading historical data...
Loading historical data...
Loading historical data...
Loading historical data...

Documentation

Showing up to 5 results
|